Regional Weather Roundup
Issued by NWS Sterling, VA

Home | Current Version | Previous Version | Graphics & Text | Print | Product List | Glossary On
Versions: 1 2 3 4 5 6 7 8 9 10 11 12 13 14 15 16 17 18 19 20 21 22 23 24 25 26 27 28 29 30 31 32 33 34 35 36 37 38 39 40 41 42 43 44 45 46 47 48 49 50
000
ASUS41 KLWX 050811
RWRLWX

REGIONAL WEATHER ROUNDUP
NATIONAL WEATHER SERVICE BALTIMORE MD/WASHINGTON DC
400 AM EDT TUE MAY 05 2015

Note: "FAIR" indicates few or no clouds below 12,000 feet
with no significant weather and/or obstructions to visibility.
 TC=TEMPERATURE CELSIUS

 * =Non NWS site. Station does not report precipitation (e.g. rain,
    snow, etc.), thunder, or fog.

DCZ001-MDZ009-015-VAZ040>042-051-053>054-050900-
WASHINGTON METRO

CITY           SKY/WX    TMP DP  RH WIND       PRES   REMARKS
WASHINGTON NAT PTCLDY    67  55  65 S8        30.20F
DULLES         PTCLDY    64  53  67 S8        30.21R
ANDREWS AFB    CLEAR     66  53  61 SW12      30.20S
FT BELVOIR     CLEAR     66  54  64 VRB1      30.20F
QUANTICO       CLEAR     68  53  58 SW7       30.22S
COLLEGE PARK*  CLEAR     68  54  60 SW3       30.20S
LEESBURG*      CLEAR     63  55  77 S5        30.21S
MANASSAS*      CLEAR     63  55  77 CALM      30.21S
GAITHERSBURG*  CLEAR     64  52  63 CALM      30.24S

$$

MDZ006>007-011-014-050900-
BALTIMORE METRO

CITY           SKY/WX    TMP DP  RH WIND       PRES   REMARKS
BWI AIRPORT    CLEAR     68  53  58 SW8       30.18S
MD SCIENCE CTR   N/A     69  53  56 MISG      30.19S
MARTIN STATE   CLEAR     59  57  94 CALM      30.20S
ANNAPOLIS      CLEAR     68  51  54 VRB6      30.18F
FORT MEADE*    CLEAR     63  54  72 SW8       30.21S

$$

MDZ012-015-019>023-050900-
MARYLAND EASTERN SHORE

CITY           SKY/WX    TMP DP  RH WIND       PRES   REMARKS
OCEAN CITY     CLEAR     64  54  69 SW9       30.24F
SALISBURY      CLEAR     63  54  72 SW10      30.24S
BAY BRIDGE AP*   N/A    N/A N/A N/A S6        30.20S
CAMBRIDGE*     CLEAR     66  54  63 S7        30.22S
EASTON*        CLEAR     65  56  72 SW8       30.24F

$$

MDZ017>025-050900-
SOUTHERN MARYLAND

CITY           SKY/WX    TMP DP  RH WIND       PRES   REMARKS
PATUXENT RIVER CLEAR     66  53  63 SW15G23   30.21F
ST INIGOES     CLEAR     65  55  70 SW10      30.23S
LEONARDTOWN*   CLEAR     64  52  63 SW10      30.24S

$$

MDZ003>005-050900-
NORTH CENTRAL MARYLAND

CITY           SKY/WX    TMP DP  RH WIND       PRES   REMARKS
FREDERICK*     CLEAR     59  50  72 CALM      30.22S
HAGERSTOWN APT MOCLDY    64  51  62 S6        30.20S
WESTMINSTER*   PTCLDY    64  54  68 SW8       30.20S

$$

MDZ501>502-050900-
WESTERN MARYLAND

CITY           SKY/WX    TMP DP  RH WIND       PRES   REMARKS
OAKLAND*       CLOUDY    57  57 100 S3        30.28F
CUMBERLAND*    CLOUDY    66  52  59 N5        30.25S

$$

VAZ025>031-050900-
SHENANDOAH VALLEY

CITY           SKY/WX    TMP DP  RH WIND       PRES   REMARKS
WINCHESTER*    CLEAR     63  46  55 W3        30.21F
FRONT ROYAL*   FAIR      61  52  72 CALM      30.21R
LURAY*         FAIR      55  54  94 SE3       30.22F
NEW MARKET*    FAIR      55  51  88 CALM      30.22F
STAUNTON*      CLEAR     52  48  86 CALM      30.26S
WAYNESBORO*    FAIR      55  50  83 S9        30.25S

$$

WVZ021-048>050-054>055-050900-
EASTERN WEST VIRGINIA PANHANDLE

CITY           SKY/WX    TMP DP  RH WIND       PRES   REMARKS
MARTINSBURG    MOCLDY    61  50  67 SW5       30.21R
PETERSBURG*    PTCLDY    56  50  79 CALM      30.24S

$$

VAZ036>039-050-050900-
CENTRAL FOOTHILLS

CITY           SKY/WX    TMP DP  RH WIND       PRES   REMARKS
CHARLOTTESVILL CLEAR     61  53  75 SW7       30.22F
CULPEPER*      NOT AVBL
ORANGE*        CLEAR     61  54  77 CALM      30.23F
GORDONSVILLE*  FAIR      57  53  86 CALM      30.22F
WARRENTON*     FAIR      64  56  74 SW3       30.20F

$$

VAZ055>057-050900-
NORTH AND CENTRAL PIEDMONT

CITY           SKY/WX    TMP DP  RH WIND       PRES   REMARKS
FREDERICKSBRG* CLEAR     68  55  63 SW9       30.21F
STAFFORD*      CLEAR     65  50  58 SW3       30.25F

$$

NCZ024-NYZ072-PAZ021-071-VAZ022-071-050900-
OTHER REGIONAL OBSERVATIONS

CITY           SKY/WX    TMP DP  RH WIND       PRES   REMARKS
NEW YORK CITY  CLEAR     68  46  45 W10G21    30.17S
PHILADELPHIA   PTCLDY    64  50  60 SW5       30.18S
PITTSBURGH     MOCLDY    61  58  90 CALM      30.22R
ROANOKE        CLEAR     63  51  65 SW5       30.29S
RICHMOND       CLEAR     62  54  74 S8        30.26F
RALEIGH        CLEAR     59  53  80 SW6       30.32F

$$

ANZ530>537-050900-
MARINE OBSERVATIONS

STATION/POSITION TIME  TEMP    WIND        PRES
                       AIR SEA DIR/SP/G
                 (UTC) (F)     (DEG/KT/KT) (MB)
THOMAS PT LIGHT  0800   66 58  200/  9/ 10 1023.1S
BALT KEY BRIDGE  0700   68     190/  3/  5 1021.8F
COVE POINT       0700   68     250/ 16/ 21 1023.5F
LEWISETTA        0700   67 67              1023.6F
SOLOMONS ISLAND  0712      61                N/A
PINEY POINT      0700          240/ 13/ 15   N/A

$$



USA.gov is the U.S. government's official web portal to all federal, state and local government web resources and services.